Hurricane Symbol View the latest observations near Atlantic Potential Tropical Cyclone One.

Station 41083 - OOI Mid-Atlantic Bright Southern Surface Mooring Image indicating link to RSS feed of recent meteorological observations for station 41083


Conditions at 41083 as of
(9:00 pm EDT on 06/18/2024)
0100 GMT on 06/19/2024:
Note: This report is more than two hours old
     

Click on the graph icon in the table below to see a time series plot of the last five days of that observation.

5-day plot - Wind Direction Wind Direction (WDIR):ESE ( 120 deg true )
5-day plot - Wind Speed Wind Speed (WSPD): 5.8 kts
5-day plot - Atmospheric Pressure Atmospheric Pressure (PRES):30.27 in
5-day plot - Pressure Tendency Pressure Tendency (PTDY):+0.02 in ( Rising )
5-day plot - Air Temperature Air Temperature (ATMP): 77.7 °F
5-day plot - Salinity Salinity (SAL): 30.72 psu
5-day plot - Wind Speed at 10 Meters Wind Speed at 10 meters (WSPD10M): 7.8 kts
5-day plot - Wind Speed at 20 Meters Wind Speed at 20 meters (WSPD20M): 7.8 kts
5-day plot -  Wind Speed, Wind Gust and Atmospheric Pressure Combined plot of Wind Speed, Gust, and Air Pressure
Previous observations
TIME
(EDT)
5-day plot - Wind Direction
WDIR
 
5-day plot - Wind Speed
WSPD
kts
5-day plot - Wind Gust
GST
kts
5-day plot - Wave Height
WVHT
ft
5-day plot - Dominant Wave Period
DPD
sec
5-day plot - Average Wave Period
APD
sec
5-day plot - Mean Wave Direction
MWD
 
5-day plot - Atmospheric Pressure
PRES
in
5-day plot - Pressure Tendency
PTDY
in
5-day plot - Air Temperature
ATMP
°F
5-day plot - Water Temperature
WTMP
°F
5-day plot - Dew Point
DEWP
°F
5-day plot - Salinity
SAL
psu
5-day plot - Visibility
VIS
nmi
5-day plot - Tide (above MLLW)
TIDE
ft
2024-06-18 08:50 pm SE 7.8-----30.26- 77.7-- 31.16--
2024-06-18 08:40 pm SE 5.8-----30.26- 77.7-- 31.51--
2024-06-18 08:30 pm SE 7.8- 3.0--ESE30.26- 77.7-- 31.54--
2024-06-18 08:20 pm SE 7.8- 3.0 6--30.26- 77.9-- 31.32--
2024-06-18 08:10 pm SE 7.8-----30.26- 77.9-- 31.22--
2024-06-18 08:00 pmESE 7.8-----30.26+0.00 77.9-- 31.16--
2024-06-18 07:50 pmESE 7.8-----30.26- 77.9-- 31.13--
2024-06-18 07:40 pm SE 7.8-----30.26- 78.1-- 31.29--
2024-06-18 07:30 pm SE 7.8- 3.3--ESE30.26- 78.1-- 31.50--
2024-06-18 07:20 pm SE 7.8- 3.3 6--30.26- 78.1-- 31.54--
2024-06-18 07:10 pm SE 7.8-----30.26- 78.1-- 31.81--
2024-06-18 07:00 pm SE 7.8-----30.26- 78.1-- 32.01--
2024-06-18 06:50 pm SE 7.8-----30.25- 78.3-- 31.89--
2024-06-18 06:40 pmESE 9.7-----30.25- 78.3-- 31.81--
2024-06-18 06:30 pmESE 7.8- 3.3-- SE30.24- 78.1-- 31.78--
2024-06-18 06:20 pm E 7.8- 3.3 6--30.24- 78.1-- 31.74--
2024-06-18 06:10 pm E 7.8-----30.24- 78.1-- 31.74--
2024-06-18 06:00 pmESE 7.8-----30.24- 78.1-- 31.70--
2024-06-18 05:50 pmESE 7.8-----30.24- 78.3-- 31.66--
2024-06-18 05:40 pmESE 9.7-----30.24- 78.1-- 31.61--
2024-06-18 05:30 pmESE 9.7- 3.0-- SE30.24- 78.1-- 31.56--
2024-06-18 05:20 pmESE 7.8- 3.0 6--30.25- 78.1-- 31.50--
2024-06-18 05:10 pmESE 7.8-----30.25- 78.1-- 31.43--
2024-06-18 05:00 pm E 7.8-----30.26- 77.9-- 31.40--
2024-06-18 04:50 pmESE 7.8-----30.26- 77.9-- 31.35--
2024-06-18 04:40 pmESE 9.7-----30.26- 78.1-- 31.30--
2024-06-18 04:30 pmESE 9.7- 3.0-- SE30.26- 77.9-- 31.22--
2024-06-18 04:20 pmESE 7.8- 3.0 6--30.27- 77.9-- 31.16--
2024-06-18 04:10 pmESE 7.8-----30.27- 77.9-- 31.08--
2024-06-18 04:00 pmESE 7.8-----30.27- 77.9-- 31.03--
2024-06-18 03:50 pmESE 7.8-----30.27- 77.9-- 30.95--
2024-06-18 03:40 pmESE 7.8-----30.28- 77.9-- 30.93--
2024-06-18 03:30 pm E 7.8- 3.0-- SE30.28- 78.1-- 30.89--
2024-06-18 03:20 pm E 7.8- 3.0 6--30.28- 78.3-- 30.84--
2024-06-18 03:10 pmESE 7.8-----30.28- 78.3-- 30.81--
2024-06-18 03:00 pm E 7.8-----30.28- 78.3-- 30.78--
2024-06-18 02:50 pmESE 9.7-----30.29- 78.3-- 30.75--
2024-06-18 02:40 pmESE 9.7-----30.29- 78.3-- 30.74--
2024-06-18 02:30 pm E 7.8- 3.0-- SE30.29- 78.3-- 30.71--
2024-06-18 02:20 pmESE 7.8- 3.0 7--30.28- 78.3-- 30.68--
2024-06-18 02:10 pmESE 9.7-----30.28- 78.3-- 30.65--
2024-06-18 02:00 pmESE 9.7-----30.29- 78.3-- 30.68--
2024-06-18 01:50 pmESE 9.7-----30.28- 78.4-- 30.70--
2024-06-18 01:40 pmESE 9.7-----30.29- 78.3-- 30.70--
2024-06-18 01:30 pmESE 9.7- 3.0-- SE30.29- 78.3-- 30.72--
2024-06-18 01:20 pmESE 7.8- 3.0 6--30.29- 78.3-- 30.76--
2024-06-18 01:10 pmESE 5.8-----30.29- 78.1-- 30.76--
2024-06-18 01:00 pmESE 7.8-----30.29- 78.3-- 30.75--
2024-06-18 12:50 pmESE 7.8-----30.29- 78.3-- 30.70--
2024-06-18 12:40 pmESE 7.8-----30.28- 78.3-- 30.62--
2024-06-18 12:30 pmESE 7.8- 3.0-- SE30.28- 78.1-- 30.57--
2024-06-18 12:20 pm E 5.8- 3.0 7--30.28- 78.1-- 30.52--
2024-06-18 12:10 pmESE 5.8-----30.29- 78.3-- 30.46--
2024-06-18 12:00 pmESE 5.8-----30.29- 78.3-- 30.37--
2024-06-18 11:50 amESE 7.8-----30.29- 78.3-- 30.28--
2024-06-18 11:40 amESE 7.8-----30.29- 78.3-- 30.23--
2024-06-18 11:30 amESE 7.8- 3.0-- SE30.29- 78.3-- 30.21--
2024-06-18 11:20 amESE 7.8- 3.0 6--30.29- 78.3-- 30.20--
2024-06-18 11:10 amESE 7.8-----30.29- 78.3-- 30.17--
2024-06-18 11:00 amESE 7.8-----30.28- 78.1-- 30.12--
2024-06-18 10:50 amESE 7.8-----30.28- 78.3-- 30.10--
2024-06-18 10:40 amESE 7.8-----30.28- 78.1-- 30.08--
2024-06-18 10:30 amESE 5.8- 3.3-- SE30.28- 78.1-- 30.06--
2024-06-18 10:20 am E 7.8- 3.3 6--30.28- 78.3-- 30.05--
2024-06-18 10:10 amESE 5.8-----30.27- 78.1-- 30.03--
2024-06-18 10:00 amESE 5.8-----30.27- 78.1-- 30.02--
2024-06-18 09:50 amESE 7.8-----30.27- 78.1-- 30.00--
2024-06-18 09:40 amESE 5.8-----30.27- 77.9-- 30.00--
2024-06-18 09:30 amESE 7.8- 3.0-- SE30.27- 78.1-----
2024-06-18 09:20 amESE 5.8- 3.0 6--30.27- 78.1-----
2024-06-18 09:10 amESE 5.8-----30.28- 78.1-----
2024-06-18 09:00 amESE 5.8-----30.28- 78.1-----
2024-06-18 08:50 amESE 5.8-----30.28- 78.1-----
2024-06-18 08:40 amESE 7.8-----30.27- 78.3-----
2024-06-18 08:30 amESE 7.8- 3.3-- SE30.27- 77.7-----
2024-06-18 08:20 amESE 5.8- 3.3 7--30.27- 77.5-----
2024-06-18 08:10 amESE 5.8-----30.27- 77.5-----
2024-06-18 08:00 amESE 5.8-----30.27- 77.7-----
2024-06-18 07:50 amESE 5.8-----30.26- 77.7-----
2024-06-18 07:40 amESE 5.8-----30.26- 77.7-----
2024-06-18 07:30 amESE 7.8- 2.6--ESE30.26- 77.9-----
2024-06-18 07:20 am E 5.8- 2.6 6--30.25- 77.5-----
2024-06-18 07:10 am E 5.8-----30.25- 77.7-----
2024-06-18 07:00 am E 5.8-----30.25- 77.7-----
2024-06-18 06:50 am E 5.8-----30.25- 77.5-----
2024-06-18 06:40 am E 5.8-----30.24- 77.2-----
2024-06-18 06:30 am E 5.8- 3.0--ESE30.24- 76.6-----
2024-06-18 06:20 amENE 5.8- 3.0 6--30.24- 76.5-----
2024-06-18 06:10 amENE 5.8-----30.24- 76.3-----
2024-06-18 06:00 amENE 5.8-----30.24- 76.1-----
2024-06-18 05:50 am NE 5.8-----30.24- 75.9-----
2024-06-18 05:40 amENE 5.8-----30.24- 76.1-----
2024-06-18 05:30 am NE 5.8- 3.0--ESE30.24- 76.1-----
2024-06-18 05:20 am NE 5.8- 3.0 7--30.24- 75.9-----
2024-06-18 05:10 am NE 5.8-----30.23- 75.9-----
2024-06-18 05:00 am NE 7.8-----30.23- 75.7-----
2024-06-18 04:50 am NE 7.8-----30.23- 75.7-----
2024-06-18 04:40 am NE 7.8-----30.23- 75.7-----
2024-06-18 04:30 amENE 7.8- 3.0--ESE30.22- 75.7-----
2024-06-18 04:20 amENE 7.8- 3.0 6--30.22- 75.6-----
2024-06-18 04:10 amENE 9.7-----30.22- 75.6-----
2024-06-18 04:00 amENE 9.7-----30.22- 75.6-----
2024-06-18 03:50 amENE 7.8-----30.22- 75.7-----
2024-06-18 03:40 am NE 7.8-----30.22- 75.7-----
2024-06-18 03:30 am NE 7.8- 3.0--ESE30.22- 75.7-----
2024-06-18 03:20 am NE 7.8- 3.0 7--30.23- 75.7-----
2024-06-18 03:10 am NE 7.8-----30.23- 75.9-----
2024-06-18 03:00 am NE 7.8-----30.23- 75.7-----
2024-06-18 02:50 am NE 5.8-----30.23- 75.7-----
2024-06-18 02:40 amNNE 5.8-----30.23- 75.7-----
2024-06-18 02:30 amNNE 5.8- 3.0--ESE30.23- 75.7-----
2024-06-18 02:20 amNNE 5.8- 3.0 7--30.23- 75.7-----
2024-06-18 02:10 am NE 3.9-----30.23- 75.7-----
2024-06-18 02:00 amNNE 3.9-----30.23- 75.7-----
2024-06-18 01:50 amNNE 3.9-----30.23- 75.7-----
2024-06-18 01:40 amNNE 3.9-----30.23- 75.7-----
2024-06-18 01:30 amNNE 1.9- 3.0--ESE30.23- 75.6-----
2024-06-18 01:20 amNNE 1.9- 3.0 7--30.22- 75.4-----
2024-06-18 01:10 amNNE 3.9-----30.22- 75.6-- 30.00--
2024-06-18 01:00 amNNE 1.9-----30.22- 75.4-- 30.03--
2024-06-18 12:50 am NE 1.9-----30.22- 75.4-- 30.13--
2024-06-18 12:40 am NE 1.9-----30.22- 75.2-- 30.29--
2024-06-18 12:30 amNNE 1.9- 3.3--ESE30.23- 75.4-- 30.35--
2024-06-18 12:20 amNNE 1.9- 3.3 6--30.23- 75.2-- 30.39--
2024-06-18 12:10 am N 1.9-----30.23- 75.4-- 30.41--
2024-06-18 12:00 am N 1.9-----30.24- 75.4-- 30.48--
2024-06-17 11:50 pm N 1.9-----30.24- 75.6-- 30.54--
2024-06-17 11:40 pm N 1.9-----30.24- 75.6-- 30.54--
2024-06-17 11:30 pm NE 1.9- 3.3--ESE30.24- 75.6-- 30.55--
2024-06-17 11:20 pmENE 1.9- 3.3 7--30.24- 75.6-- 30.54--
2024-06-17 11:10 pm E 1.9-----30.24- 75.7-- 30.54--
2024-06-17 11:00 pm SE 1.9-----30.23- 75.7-- 30.54--
2024-06-17 10:50 pmSSE 1.9-----30.23- 75.9-- 30.54--

Detailed Wave Summary
for 41083 as of
(8:20 pm EDT on 06/18/2024)
0020 GMT on 06/19/2024:
Note: This report is more than two hours old

These wave data are displayed in rounded times.

     

Click on the graph icon in the table below to see a time series plot of the last five days of that observation.

5-day plot - Significant Wave Height Significant Wave Height (WVHT): 3.0 ft
5-day plot - Wave Steepness Wave Steepness (STEEPNESS): STEEP
Previous observations
TIME
(EDT)
5-day plot - Wave Height
WVHT
ft
5-day plot - Swell Height
SwH
ft
5-day plot - Swell Period
SwP
sec
5-day plot - Swell Direction
SwD
 
5-day plot - Wind Wave Height
WWH
ft
5-day plot - Wind Wave Period
WWP
sec
5-day plot - Wind Wave Direction
WWD
 
5-day plot - Wave Steepness
STEEPNESS
 
5-day plot - Average Wave Period
APD
sec
2024-06-18 07:20 pm 3.3------ STEEP-
2024-06-18 06:20 pm 3.3------ STEEP-
2024-06-18 05:20 pm 3.0------ STEEP-
2024-06-18 04:20 pm 3.0------ STEEP-
2024-06-18 03:20 pm 3.0------ STEEP-
2024-06-18 02:20 pm 3.0------ AVERAGE-
2024-06-18 01:20 pm 3.0------ STEEP-
2024-06-18 12:20 pm 3.0------ AVERAGE-
2024-06-18 11:20 am 3.0------ STEEP-
2024-06-18 10:20 am 3.3------ STEEP-
2024-06-18 09:20 am 3.0------ STEEP-
2024-06-18 08:20 am 3.3------ AVERAGE-
2024-06-18 07:20 am 2.6------ AVERAGE-
2024-06-18 06:20 am 3.0------ AVERAGE-
2024-06-18 05:20 am 3.0------ AVERAGE-
2024-06-18 04:20 am 3.0------ STEEP-
2024-06-18 03:20 am 3.0------ AVERAGE-
2024-06-18 02:20 am 3.0------ AVERAGE-
2024-06-18 01:20 am 3.0------ AVERAGE-
2024-06-18 12:20 am 3.3------ STEEP-
2024-06-17 11:20 pm 3.3------ AVERAGE-

Ocean Conditions at 41083 as of
(9:00 pm EDT on 06/18/2024)
0100 GMT on 06/19/2024:
Note: This report is more than two hours old

These oceanographic data are displayed in rounded times.

     

Click on the graph icon in the table below to see a time series plot of the last five days of that observation.

Depth (DEPTH): 3.0 ft
5-day plot - Salinity Salinity (SAL):30.72 psu
Previous observations
TIME
(EDT)
DEPTH
ft
5-day plot - Ocean Temperature
OTMP
°F
5-day plot - Conductivity
COND
mS/cm
5-day plot - Salinity
SAL
psu
5-day plot - Oxygen Concentration
O2%
%
5-day plot - Oxygen Concentration
O2PPM
ppm
5-day plot - Chlorophyll
CLCON
ug/l
5-day plot - Turbidity
TURB
FTU
5-day plot - pH
PH
 
5-day plot - Eh
EH
mv
2024-06-18 08:50 pm 3.0--31.16------
2024-06-18 08:40 pm 3.0--31.51------
2024-06-18 08:30 pm 3.0--31.54------
2024-06-18 08:20 pm 3.0--31.32------
2024-06-18 08:10 pm 3.0--31.22------
2024-06-18 08:00 pm 3.0--31.16------
2024-06-18 07:50 pm 3.0--31.13------
2024-06-18 07:40 pm 3.0--31.29------
2024-06-18 07:30 pm 3.0--31.50------
2024-06-18 07:20 pm 3.0--31.54------
2024-06-18 07:10 pm 3.0--31.81------
2024-06-18 07:00 pm 3.0--32.01------
2024-06-18 06:50 pm 3.0--31.89------
2024-06-18 06:40 pm 3.0--31.81------
2024-06-18 06:30 pm 3.0--31.78------
2024-06-18 06:20 pm 3.0--31.74------
2024-06-18 06:10 pm 3.0--31.74------
2024-06-18 06:00 pm 3.0--31.70------
2024-06-18 05:50 pm 3.0--31.66------
2024-06-18 05:40 pm 3.0--31.61------
2024-06-18 05:30 pm 3.0--31.56------
2024-06-18 05:20 pm 3.0--31.50------
2024-06-18 05:10 pm 3.0--31.43------
2024-06-18 05:00 pm 3.0--31.40------
2024-06-18 04:50 pm 3.0--31.35------
2024-06-18 04:40 pm 3.0--31.30------
2024-06-18 04:30 pm 3.0--31.22------
2024-06-18 04:20 pm 3.0--31.16------
2024-06-18 04:10 pm 3.0--31.08------
2024-06-18 04:00 pm 3.0--31.03------
2024-06-18 03:50 pm 3.0--30.95------
2024-06-18 03:40 pm 3.0--30.93------
2024-06-18 03:30 pm 3.0--30.89------
2024-06-18 03:20 pm 3.0--30.84------
2024-06-18 03:10 pm 3.0--30.81------
2024-06-18 03:00 pm 3.0--30.78------
2024-06-18 02:50 pm 3.0--30.75------
2024-06-18 02:40 pm 3.0--30.74------
2024-06-18 02:30 pm 3.0--30.71------
2024-06-18 02:20 pm 3.0--30.68------
2024-06-18 02:10 pm 3.0--30.65------
2024-06-18 02:00 pm 3.0--30.68------
2024-06-18 01:50 pm 3.0--30.70------
2024-06-18 01:40 pm 3.0--30.70------
2024-06-18 01:30 pm 3.0--30.72------
2024-06-18 01:20 pm 3.0--30.76------
2024-06-18 01:10 pm 3.0--30.76------
2024-06-18 01:00 pm 3.0--30.75------
2024-06-18 12:50 pm 3.0--30.70------
2024-06-18 12:40 pm 3.0--30.62------
2024-06-18 12:30 pm 3.0--30.57------
2024-06-18 12:20 pm 3.0--30.52------
2024-06-18 12:10 pm 3.0--30.46------
2024-06-18 12:00 pm 3.0--30.37------
2024-06-18 11:50 am 3.0--30.28------
2024-06-18 11:40 am 3.0--30.23------
2024-06-18 11:30 am 3.0--30.21------
2024-06-18 11:20 am 3.0--30.20------
2024-06-18 11:10 am 3.0--30.17------
2024-06-18 11:00 am 3.0--30.12------
2024-06-18 10:50 am 3.0--30.10------
2024-06-18 10:40 am 3.0--30.08------
2024-06-18 10:30 am 3.0--30.06------
2024-06-18 10:20 am 3.0--30.05------
2024-06-18 10:10 am 3.0--30.03------
2024-06-18 10:00 am 3.0--30.02------
2024-06-18 09:50 am 3.0--30.00------
2024-06-18 09:40 am 3.0--30.00------
2024-06-18 01:00 am 3.0--30.00------
2024-06-18 12:50 am 3.0--30.03------
2024-06-18 12:40 am 3.0--30.13------
2024-06-18 12:30 am 3.0--30.29------
2024-06-18 12:20 am 3.0--30.35------
2024-06-18 12:10 am 3.0--30.39------
2024-06-18 12:00 am 3.0--30.41------
2024-06-17 11:50 pm 3.0--30.48------
2024-06-17 11:40 pm 3.0--30.54------
2024-06-17 11:30 pm 3.0--30.54------
2024-06-17 11:20 pm 3.0--30.55------
2024-06-17 11:10 pm 3.0--30.54------
2024-06-17 11:00 pm 3.0--30.54------
2024-06-17 10:50 pm 3.0--30.54------

Solar Radiation Conditions at 41083 as of
(9:00 pm EDT on 06/18/2024)
0100 GMT on 06/19/2024:
Note: This report is more than two hours old
     

Click on the graph icon in the table below to see a time series plot of the last five days of that observation.

5-day plot - Short Wave Radiation 1 Short Wave Radiation 1 (SRAD1): 2.8watts/meter2
5-day plot - Long Wave Radiation Long Wave Radiation (LWRAD): 384.5watts/meter2
Previous observations
TIME
(EDT)
5-day plot - Short Wave Radiation 1
SRAD1
w/m2
5-day plot - Short Wave Radiation 2
SRAD2
w/m2
5-day plot - Long Wave Radiation
LRAD
w/m2
2024-06-18 08:50 pm 2.5- 371.3
2024-06-18 08:40 pm 2.1- 367.2
2024-06-18 08:30 pm 2.3- 367.6
2024-06-18 08:20 pm 4.1- 366.0
2024-06-18 08:10 pm 8.5- 364.5
2024-06-18 08:00 pm 20.6- 365.5
2024-06-18 07:50 pm 37.8- 365.7
2024-06-18 07:40 pm 61.5- 364.9
2024-06-18 07:30 pm 87.4- 364.3
2024-06-18 07:20 pm 119.6- 365.6
2024-06-18 07:10 pm 142.9- 365.4
2024-06-18 07:00 pm 180.1- 364.5
2024-06-18 06:50 pm 213.8- 363.2
2024-06-18 06:40 pm 251.3- 362.6
2024-06-18 06:30 pm 276.4- 362.4
2024-06-18 06:20 pm 320.1- 360.5
2024-06-18 06:10 pm 342.3- 361.3
2024-06-18 06:00 pm 375.3- 362.3
2024-06-18 05:50 pm 429.8- 364.2
2024-06-18 05:40 pm 455.3- 364.9
2024-06-18 05:30 pm 485.3- 364.5
2024-06-18 05:20 pm 516.7- 365.8
2024-06-18 05:10 pm 553.3- 365.9
2024-06-18 05:00 pm 587.0- 366.4
2024-06-18 04:50 pm 616.3- 367.4
2024-06-18 04:40 pm 648.5- 367.1
2024-06-18 04:30 pm 680.4- 367.0
2024-06-18 04:20 pm 708.8- 366.8
2024-06-18 04:10 pm 735.1- 368.0
2024-06-18 04:00 pm 765.8- 369.7
2024-06-18 03:50 pm 784.4- 371.3
2024-06-18 03:40 pm 807.4- 368.8
2024-06-18 03:30 pm 837.1- 367.8
2024-06-18 03:20 pm 858.6- 368.0
2024-06-18 03:10 pm 882.1- 368.2
2024-06-18 03:00 pm 903.7- 368.6
2024-06-18 02:50 pm 924.1- 370.3
2024-06-18 02:40 pm 943.2- 371.4
2024-06-18 02:30 pm 955.2- 370.3
2024-06-18 02:20 pm 968.0- 368.6
2024-06-18 02:10 pm 981.1- 368.7
2024-06-18 02:00 pm 992.7- 368.8
2024-06-18 01:50 pm1003.2- 368.4
2024-06-18 01:40 pm1012.0- 369.4
2024-06-18 01:30 pm1028.4- 373.6
2024-06-18 01:20 pm1017.6- 369.9
2024-06-18 01:10 pm1018.1- 368.8
2024-06-18 01:00 pm1007.2- 368.8
2024-06-18 12:50 pm1022.9- 370.1
2024-06-18 12:40 pm 868.7- 378.6
2024-06-18 12:30 pm 978.0- 370.3
2024-06-18 12:20 pm1003.9- 367.4
2024-06-18 12:10 pm 994.0- 367.1
2024-06-18 12:00 pm 981.4- 367.5
2024-06-18 11:50 am 972.6- 367.7
2024-06-18 11:40 am 959.5- 366.7
2024-06-18 11:30 am 946.5- 366.3
2024-06-18 11:20 am 928.2- 367.0
2024-06-18 11:10 am 909.2- 366.4
2024-06-18 11:00 am 888.0- 365.8
2024-06-18 10:50 am 868.5- 365.3
2024-06-18 10:40 am 848.7- 365.6
2024-06-18 10:30 am 822.0- 365.9
2024-06-18 10:20 am 800.2- 366.6
2024-06-18 10:10 am 771.5- 365.5
2024-06-18 10:00 am 748.3- 365.1
2024-06-18 09:50 am 717.4- 365.6
2024-06-18 09:40 am 690.3- 365.7
2024-06-18 09:30 am 659.4- 367.1
2024-06-18 09:20 am 643.7- 369.4
2024-06-18 09:10 am 612.3- 368.8
2024-06-18 09:00 am 571.6- 367.6
2024-06-18 08:50 am 524.4- 369.0
2024-06-18 08:40 am 551.9- 379.5
2024-06-18 08:30 am 427.1- 398.2
2024-06-18 08:20 am 255.9- 407.6
2024-06-18 08:10 am 355.5- 399.1
2024-06-18 08:00 am 219.0- 372.1
2024-06-18 07:50 am 349.4- 367.6
2024-06-18 07:40 am 302.8- 367.5
2024-06-18 07:30 am 309.0- 379.3
2024-06-18 07:20 am 240.9- 391.3
2024-06-18 07:10 am 183.2- 379.1
2024-06-18 07:00 am 184.4- 370.9
2024-06-18 06:50 am 169.0- 377.3
2024-06-18 06:40 am 147.7- 383.5
2024-06-18 06:30 am 130.1- 392.4
2024-06-18 06:20 am 85.1- 376.9
2024-06-18 06:10 am 46.7- 365.0
2024-06-18 06:00 am 28.2- 364.4
2024-06-18 05:50 am 15.3- 364.1
2024-06-18 05:40 am 8.1- 363.7
2024-06-18 05:30 am 4.8- 364.3
2024-06-18 05:20 am 3.3- 363.4
2024-06-18 05:10 am 3.0- 363.6
2024-06-18 05:00 am 2.9- 363.3
2024-06-18 04:50 am 2.9- 363.8
2024-06-18 04:40 am 2.9- 363.2
2024-06-18 04:30 am 3.0- 364.5
2024-06-18 04:20 am 2.9- 361.8
2024-06-18 04:10 am 2.9- 363.9
2024-06-18 04:00 am 3.0- 367.1
2024-06-18 03:50 am 2.9- 363.2
2024-06-18 03:40 am 2.8- 360.4
2024-06-18 03:30 am 2.9- 362.1
2024-06-18 03:20 am 2.9- 365.3
2024-06-18 03:10 am 3.0- 365.2
2024-06-18 03:00 am 3.1- 373.9
2024-06-18 02:50 am 2.9- 366.2
2024-06-18 02:40 am 2.9- 364.2
2024-06-18 02:30 am 2.9- 368.3
2024-06-18 02:20 am 2.8- 363.6
2024-06-18 02:10 am 2.6- 363.7
2024-06-18 02:00 am 2.6- 359.6
2024-06-18 01:50 am 2.7- 359.9
2024-06-18 01:40 am 2.6- 361.3
2024-06-18 01:30 am 3.1- 375.7
2024-06-18 01:20 am 2.7- 373.8
2024-06-18 01:10 am 2.5- 361.5
2024-06-18 01:00 am 2.4- 359.7
2024-06-18 12:50 am 2.3- 359.8
2024-06-18 12:40 am 2.3- 360.5
2024-06-18 12:30 am 2.4- 365.7
2024-06-18 12:20 am 2.2- 362.5
2024-06-18 12:10 am 2.0- 358.8
2024-06-18 12:00 am 2.1- 358.8
2024-06-17 11:50 pm 2.0- 358.1
2024-06-17 11:40 pm 1.9- 357.6
2024-06-17 11:30 pm 1.9- 358.2
2024-06-17 11:20 pm 1.8- 356.9
2024-06-17 11:10 pm 1.7- 356.7
2024-06-17 11:00 pm 1.6- 355.5
2024-06-17 10:50 pm 1.9- 356.0